Time,TemperatureF,DewpointF,PressureIn,WindDirection,WindDirectionDegrees,WindSpeedMPH,WindSpeedGustMPH,Humidity,HourlyPrecipIn,Conditions,Clouds,dailyrainin,SolarRadiationWatts/m^2,SoftwareType,DateUTC
2014-09-22 00:22:00,57.0,43.0,-100.00,SE,140,9.0,18.0,59,0.00,,,0.00,0.000000,,2014-09-22 06:22:00,
2014-09-22 00:33:00,57.0,43.0,-100.00,SE,140,9.0,18.0,59,0.00,,,0.00,0.000000,,2014-09-22 06:33:00,
2014-09-22 00:43:00,57.0,43.0,-100.00,SE,140,9.0,18.0,59,0.00,,,0.00,0.000000,,2014-09-22 06:43:00,
2014-09-22 00:52:00,54.0,43.0,-100.00,SSE,147,10.0,23.0,66,0.00,,,0.00,0.000000,,2014-09-22 06:52:00,
2014-09-22 01:22:00,54.0,43.0,-100.00,SSE,147,10.0,23.0,66,0.00,,,0.00,0.000000,,2014-09-22 07:22:00,
2014-09-22 01:33:00,54.0,43.0,-100.00,SSE,147,10.0,23.0,66,0.00,,,0.00,0.000000,,2014-09-22 07:33:00,
2014-09-22 01:43:00,54.0,43.0,-100.00,SSE,147,10.0,23.0,66,0.00,,,0.00,0.000000,,2014-09-22 07:43:00,
2014-09-22 01:52:00,55.0,44.0,-100.00,SE,133,3.0,17.0,67,0.00,,,0.00,0.000000,,2014-09-22 07:52:00,
2014-09-22 02:22:00,55.0,44.0,-100.00,SE,133,3.0,17.0,67,0.00,,,0.00,0.000000,,2014-09-22 08:22:00,
2014-09-22 02:32:00,55.0,44.0,-100.00,SE,133,3.0,17.0,67,0.00,,,0.00,0.000000,,2014-09-22 08:32:00,
2014-09-22 02:42:00,55.0,44.0,-100.00,SE,133,3.0,17.0,67,0.00,,,0.00,0.000000,,2014-09-22 08:42:00,
2014-09-22 03:22:00,57.0,44.0,-100.00,South,171,4.0,11.0,61,0.00,,,0.00,0.000000,,2014-09-22 09:22:00,
2014-09-22 03:34:00,57.0,44.0,-100.00,South,171,4.0,11.0,61,0.00,,,0.00,0.000000,,2014-09-22 09:34:00,
2014-09-22 03:52:00,55.0,42.0,-100.00,SSW,197,4.0,10.0,61,-99.99,,,0.00,0.000000,,2014-09-22 09:52:00,
2014-09-22 04:23:00,55.0,42.0,-100.00,SSW,197,4.0,10.0,61,-99.99,,,0.00,0.000000,,2014-09-22 10:23:00,
2014-09-22 04:33:00,55.0,42.0,-100.00,SSW,197,4.0,10.0,61,-99.99,,,0.00,0.000000,,2014-09-22 10:33:00,
2014-09-22 04:43:00,55.0,42.0,-100.00,SSW,197,4.0,10.0,61,-99.99,,,0.00,0.000000,,2014-09-22 10:43:00,
2014-09-22 04:52:00,53.0,42.0,-100.00,SW,215,5.0,9.0,67,0.00,,,0.00,0.000000,,2014-09-22 10:52:00,
2014-09-22 05:23:00,53.0,42.0,-100.00,SW,215,5.0,9.0,67,0.00,,,0.00,0.000000,,2014-09-22 11:23:00,
2014-09-22 05:32:00,53.0,42.0,-100.00,SW,215,5.0,9.0,67,0.00,,,0.00,0.000000,,2014-09-22 11:32:00,
2014-09-22 05:42:00,53.0,42.0,-100.00,SW,215,5.0,9.0,67,0.00,,,0.00,0.000000,,2014-09-22 11:42:00,
2014-09-22 05:52:00,54.0,44.0,-100.00,SW,224,5.0,10.0,69,0.00,,,0.00,0.000000,,2014-09-22 11:52:00,
2014-09-22 06:23:00,54.0,44.0,-100.00,SW,224,5.0,10.0,69,0.00,,,0.00,0.000000,,2014-09-22 12:23:00,
2014-09-22 06:32:00,54.0,44.0,-100.00,SW,224,5.0,10.0,69,0.00,,,0.00,0.000000,,2014-09-22 12:32:00,
2014-09-22 06:42:00,54.0,44.0,-100.00,SW,224,5.0,10.0,69,0.00,,,0.00,0.000000,,2014-09-22 12:42:00,
2014-09-22 06:52:00,53.0,44.0,-100.00,SW,233,6.0,14.0,72,0.00,,,0.00,0.000000,,2014-09-22 12:52:00,
2014-09-22 07:22:00,53.0,44.0,-100.00,SW,233,6.0,14.0,72,0.00,,,0.00,0.000000,,2014-09-22 13:22:00,
2014-09-22 07:32:00,53.0,44.0,-100.00,SW,233,6.0,14.0,72,0.00,,,0.00,0.000000,,2014-09-22 13:32:00,
2014-09-22 07:42:00,53.0,44.0,-100.00,SW,233,6.0,14.0,72,0.00,,,0.00,0.000000,,2014-09-22 13:42:00,
2014-09-22 07:52:00,52.0,43.0,-100.00,SSW,202,8.0,16.0,72,0.00,,,0.00,24.000000,,2014-09-22 13:52:00,
2014-09-22 08:22:00,52.0,43.0,-100.00,SSW,202,8.0,16.0,72,0.00,,,0.00,24.000000,,2014-09-22 14:22:00,
2014-09-22 08:32:00,52.0,43.0,-100.00,SSW,202,8.0,16.0,72,0.00,,,0.00,24.000000,,2014-09-22 14:32:00,
2014-09-22 08:43:00,52.0,43.0,-100.00,SSW,202,8.0,16.0,72,0.00,,,0.00,24.000000,,2014-09-22 14:43:00,
2014-09-22 08:52:00,57.0,47.0,-100.00,SSW,206,14.0,23.0,68,0.00,,,0.00,313.000000,,2014-09-22 14:52:00,
2014-09-22 09:22:00,57.0,47.0,-100.00,SSW,206,14.0,23.0,68,0.00,,,0.00,313.000000,,2014-09-22 15:22:00,
2014-09-22 09:34:00,57.0,47.0,-100.00,SSW,206,14.0,23.0,68,0.00,,,0.00,313.000000,,2014-09-22 15:34:00,
2014-09-22 09:44:00,57.0,47.0,-100.00,SSW,206,14.0,23.0,68,0.00,,,0.00,313.000000,,2014-09-22 15:44:00,
2014-09-22 10:24:00,55.0,45.0,-100.00,SSW,208,9.0,27.0,70,0.00,,,0.00,351.000000,,2014-09-22 16:24:00,
2014-09-22 10:34:00,55.0,45.0,-100.00,SSW,208,9.0,27.0,70,0.00,,,0.00,351.000000,,2014-09-22 16:34:00,
2014-09-22 10:44:00,55.0,45.0,-100.00,SSW,208,9.0,27.0,70,0.00,,,0.00,351.000000,,2014-09-22 16:44:00,